Regional Weather Roundup
Issued by NWS

Home | Current Version | Previous Version | Graphics & Text | Print | Product List | Glossary On
Versions: 1 2 3 4 5 6 7 8 9 10 11 12 13 14 15 16 17 18 19 20 21 22 23 24 25 26 27 28 29 30 31 32 33 34 35 36 37 38 39 40 41 42 43 44 45 46 47 48 49 50
000
ASUS43 KBIS 290310
RWRND

NORTH DAKOTA REGIONAL WEATHER ROUNDUP
NATIONAL WEATHER SERVICE BISMARCK ND
1000 PM CDT SUN MAY 28 2017

NOTE: "FAIR" INDICATES FEW OR NO CLOUDS BELOW 12,000 FEET WITH NO
SIGNIFICANT WEATHER AND/OR OBSTRUCTIONS TO VISIBILITY.


NDZ001>003-009>011-017-290400-
NORTHWEST NORTH DAKOTA

CITY           SKY/WX    TMP DP  RH WIND       PRES   REMARKS
WILLISTON      FAIR      52  40  63 NW7       30.03S
MINOT          CLOUDY    56  43  61 NW18G28   29.93S
MINOT AFB      MOCLDY    54  45  73 N15       29.93R
$$

NDZ018>021-031>035-040>046-290400-
SOUTHWEST NORTH DAKOTA

CITY           SKY/WX    TMP DP  RH WIND       PRES   REMARKS
BISMARCK       FAIR      58  41  53 NW10      29.94R
DICKINSON      FAIR      54  35  48 N14G23    30.00R
GARRISON         N/A     53  41  63 NW13      29.95R
HETTINGER ARPT CLEAR     54  32  43 NW9       30.01R
$$

NDZ004>008-012>016-024-026-027-054-290400-
NORTHEAST NORTH DAKOTA

CITY           SKY/WX    TMP DP  RH WIND       PRES   REMARKS
GRAND FORKS    CLOUDY    54  49  83 NW15      29.78R
GRND FRKS AFB  CLOUDY    52  50  93 N17G25    29.80R
DEVILS LAKE    CLOUDY    54  46  74 N17G23    29.85R
$$

NDZ022-023-025-028>030-036>039-047>053-290400-
SOUTHEAST NORTH DAKOTA

CITY           SKY/WX    TMP DP  RH WIND       PRES   REMARKS
FARGO          CLOUDY    55  50  83 NW10      29.79R
JAMESTOWN      LGT RAIN  52  48  86 NW9       29.85R
$$





USA.gov is the U.S. government's official web portal to all federal, state and local government web resources and services.